#timestamp,LO_Frequency,Hit,StdDev 
1589230815.8,286046995.6,N
1589230835.6,286046997.2,N
1589230855.4,286046995.2,N
1589230875.3,286046997.9,N
1589230895.1,286046996.1,N
1589230915.8,286046994.1,Y
1589230935.7,286046995.3,P
1589230955.5,286046999.6,N
1589230975.4,286046999.3,N
1589230995.2,286047000.5,N
1589231015.0,286047000.3,N
1589231015.9,286047000.3,N
1589231035.8,286046996.7,N
1589231055.6,286046994.9,N
1589231075.5,286046994.2,N
1589231095.3,286046997.3,N
1589231115.1,286046995.1,N
1589231135.9,286046996.8,N
1589231155.7,286046998.3,N
1589231175.5,286046999.3,N
1589231195.4,286046998.7,N
1589231215.2,286046998.9,N
1589231235.1,286046994.9,N
1589231236.0,286046994.9,N
1589231255.8,286046994.9,N
1589231275.6,286046997.2,N
1589231295.5,286046999.2,N
1589231315.3,286046998.6,N
1589231335.2,286047000.7,N
1589231355.9,286046998.3,N
1589231375.7,286047002.8,N
1589231395.6,286047002.5,N
1589231415.4,286047001.2,N
1589231435.2,286046998.2,N
1589231455.1,286047000.4,N
1589231456.0,286047000.4,N
1589231475.8,286047002.1,N
1589231495.7,286047002.6,N
1589231515.5,286047000.4,N
1589231535.3,286047000.9,N
1589231555.2,286046998.1,N
1589231575.0,286047000.8,N
1589231575.9,286047000.8,N
1589231595.8,286046998.6,N
1589231615.6,286046999.0,N
1589231635.4,286046999.3,N
1589231655.3,286046999.1,N
1589231675.1,286046998.1,N
1589231695.8,286047000.3,N
1589231715.7,286047001.1,N
1589231765.6,286046999.9,E
1589231775.5,286046998.4,N
1589231795.3,286046999.4,P
1589231815.1,286047000.0,N
1589231835.9,286046998.8,N
1589231855.7,286047000.3,N
1589231875.6,286047010.5,Y
1589231895.4,286047005.7,P
1589231915.2,286047005.7,N
1589231935.1,286047005.9,N
1589231936.0,286047005.9,N
1589231955.8,286047003.1,N
1589231975.7,286047003.2,N
1589231995.5,286047003.7,N
1589232015.3,286047005.7,N
1589232035.2,286047005.2,N
1589232055.0,286047003.7,N
1589232055.9,286047003.7,N
1589232075.8,286047004.1,N
1589232095.6,286047006.0,Y
1589232115.4,286047001.2,P
1589232135.3,286047000.9,N
1589232155.1,286047002.5,N
1589232175.8,286047002.6,N
1589232195.7,286047000.2,N
1589232215.5,286047000.4,N
1589232235.4,286047000.4,N
1589232255.2,286046999.6,N
1589232275.0,286047000.7,N
1589232275.9,286047000.7,N
1589232295.8,286047000.1,N
1589232315.6,286047000.9,N
1589232335.5,286047000.2,N
1589232355.3,286047002.3,N
1589232375.1,286047002.2,N
1589232395.9,286047002.0,N
1589232415.7,286047000.4,N
1589232435.5,286047000.6,N
1589232455.4,286047001.1,N
1589232475.2,286046998.6,N
1589232495.1,286046999.1,N
1589232496.0,286046999.1,N
1589232515.8,286046998.2,N
1589232535.6,286046999.8,N
1589232555.5,286047000.0,N
1589232575.3,286046998.2,N
1589232595.1,286047002.3,N
1589232615.9,286047004.0,N
1589232635.7,286047000.3,N
1589232655.6,286047003.6,N
1589232675.4,286047003.2,N
1589232695.2,286047002.7,N
1589232715.1,286047004.0,N
1589232716.0,286047004.0,N
1589232735.8,286047006.0,Y
1589232755.7,286047001.7,P
1589232775.5,286047000.1,N
1589232795.3,286047000.9,N
1589232815.2,286047000.0,N
1589232835.0,286047002.0,Y
1589232835.9,286047002.0,P
1589232855.8,286047000.9,N
1589232875.6,286046999.5,N
1589232895.4,286046999.9,N
1589232915.3,286047000.4,N
1589232935.1,286047000.4,N
1589232955.9,286046999.7,N
1589232975.7,286047000.4,N
1589232995.5,286046999.8,N
1589233015.4,286047000.1,N
1589233035.2,286046998.3,N
1589233055.0,286047000.3,N
1589233056.0,286047000.3,N
1589233075.8,286047002.6,Y
1589233095.6,286047001.2,P
1589233115.5,286047001.2,N
1589233135.3,286047000.7,N
1589233155.1,286047000.0,N
1589233175.9,286046999.7,N
1589233195.7,286047001.6,N
1589233215.6,286047003.2,Y
1589233235.4,286047001.8,P
1589233255.2,286047001.6,N
1589233275.1,286047004.0,P
1589233276.0,286047004.0,Y
1589233295.8,286047001.0,P
1589233315.7,286046998.5,P
1589233335.5,286046998.3,N
1589233355.3,286046999.6,N
1589233375.2,286046998.9,N
1589233395.0,286046998.1,N
1589233395.9,286046998.1,N
1589233415.8,286046996.7,N
1589233435.6,286046997.4,N
1589233455.4,286046997.7,N
1589233475.3,286046999.5,N
1589233495.1,286046999.1,N
1589233515.9,286046997.2,N
1589233535.7,286046996.3,N
1589233555.5,286046995.6,N
1589233575.4,286046995.1,Y
1589233595.2,286046999.1,P
1589233615.1,286046999.2,N
1589233616.0,286046999.2,N
1589233635.8,286046996.5,Y
1589233655.6,286047001.3,P
1589233675.5,286047002.5,N
1589233695.3,286047001.0,N
1589233715.2,286046999.9,N
1589233735.9,286047003.5,N
1589233755.7,286047001.6,N
1589233775.6,286047000.5,N
1589233795.4,286047000.5,N
1589233815.3,286047001.0,N
1589233835.1,286047002.4,N
1589233836.0,286047002.4,N
1589233855.8,286046998.2,N
1589233875.7,286047000.0,N
1589233895.5,286047002.7,N
1589233915.4,286046999.3,N
1589233935.2,286046998.8,N
1589233955.0,286046999.1,N
1589233955.9,286046999.1,N
1589233975.8,286046998.3,N
1589233995.6,286046996.7,N
1589234015.5,286046997.1,N
1589234035.3,286046998.8,N
1589234055.1,286046998.3,N
1589234075.9,286046996.9,N
1589234095.7,286046996.5,N
1589234115.6,286046999.6,N
1589234135.4,286046999.1,N
1589234155.2,286046999.9,N
1589234175.1,286047000.9,N
1589234176.0,286047000.9,N
1589234195.8,286046996.9,N
1589234215.6,286046997.9,N
1589234235.5,286046998.0,N
1589234255.3,286046997.0,N
1589234275.2,286046999.8,N
1589234295.9,286047002.1,N
1589234315.7,286047002.4,N
1589234335.6,286047002.0,N
1589234355.4,286046999.7,N
1589234375.2,286047001.0,N
1589234395.1,286047000.9,N
1589234396.0,286047000.9,N
